Location: Table Mountain
(47.2500°N, 120.5778°W)
Time: 08:58:40
(UTC-07:00)

Vanguard 2 Rocket - Visible Passes

Search period start: 20 October 2017 00:00
Search period end: 30 October 2017 00:00
Orbit: 555 x 3327 km, 32.9° (Epoch: 19 October)

Date Brightness Start Highest point End Pass type
(mag) Time Alt. Az. Time Alt. Az. Time Alt. Az.
20 Oct 10.9 19:31:57 10° WSW 19:39:18 16° SSW 19:48:20 10° S visible
21 Oct 10.7 18:31:21 10° WSW 18:39:03 20° SSW 18:49:16 10° SSE visible
23 Oct 11.0 18:48:44 10° SW 18:53:14 13° SSW 18:58:28 10° S visible
